• In Moldova, Republic
  • List of Countries
  • For 7 days
  • Water Temperature
  • Satellite Maps
  • Weather Map
  • Weather Widgets
  • user-avatar
    Login

    Hourly Weather Djelfa

    Today, 21 January, Saturday

    Time Temperature Precipitation Wind Pressure Humidity
    00:00 0°C° 0.6 mm 5 mps 655 mmHg 89%
    01:00 -1°C° 0.4 mm 6 mps 655 mmHg 90%
    02:00 -1°C° 0.4 mm 7 mps 655 mmHg 91%
    03:00 -1°C° 0.4 mm 7 mps 655 mmHg 91%
    04:00 -2°C° 0.2 mm 8 mps 655 mmHg 91%
    05:00 -2°C° 0.2 mm 8 mps 655 mmHg 90%
    06:00 -2°C° 0.2 mm 8 mps 656 mmHg 90%
    07:00 -1°C° 0.1 mm 9 mps 656 mmHg 87%
    08:00 -1°C° 0.1 mm 9 mps 656 mmHg 85%
    09:00 -1°C° 0.1 mm 9 mps 656 mmHg 82%
    10:00 0°C° 0.4 mm 10 mps 656 mmHg 81%
    11:00 -1°C° 0.4 mm 11 mps 656 mmHg 80%
    12:00 +1°C° 0.4 mm 11 mps 656 mmHg 79%
    13:00 +1°C° 0.4 mm 11 mps 656 mmHg 79%
    14:00 0°C° 0.4 mm 12 mps 656 mmHg 79%
    15:00 0°C° 0.4 mm 12 mps 655 mmHg 79%
    16:00 -1°C° 0.3 mm 11 mps 656 mmHg 80%
    17:00 0°C° 0.3 mm 10 mps 656 mmHg 82%
    18:00 0°C° 0.3 mm 9 mps 656 mmHg 83%
    19:00 -1°C° 0.1 mm 9 mps 656 mmHg 84%
    20:00 -1°C° 0.1 mm 8 mps 656 mmHg 85%
    21:00 -1°C° 0.1 mm 8 mps 656 mmHg 85%
    22:00 -1°C° 0.2 mm 7 mps 656 mmHg 86%
    23:00 -1°C° 0.2 mm 7 mps 656 mmHg 87%

    Tomorrow, 22 January, Sunday

    Time Temperature Precipitation Wind Pressure Humidity
    00:00 -1°C° 0.2 mm 6 mps 656 mmHg 88%
    01:00 0°C° 0.1 mm 5 mps 656 mmHg 89%
    02:00 0°C° 0.1 mm 5 mps 655 mmHg 89%
    03:00 0°C° 0.1 mm 4 mps 655 mmHg 90%
    04:00 0°C° 0.1 mm 4 mps 655 mmHg 91%
    05:00 0°C° 0.1 mm 4 mps 655 mmHg 92%
    06:00 0°C° 0.1 mm 4 mps 655 mmHg 93%
    07:00 0°C° 0.3 mm 5 mps 655 mmHg 91%
    08:00 +1°C° 0.3 mm 6 mps 656 mmHg 89%
    09:00 0°C° 0.3 mm 8 mps 656 mmHg 86%
    10:00 +1°C° 0.2 mm 8 mps 656 mmHg 82%
    11:00 +1°C° 0.2 mm 9 mps 656 mmHg 79%
    12:00 +2°C° 0.2 mm 9 mps 657 mmHg 75%
    13:00 +2°C° 0.3 mm 9 mps 657 mmHg 74%
    14:00 +2°C° 0.3 mm 9 mps 657 mmHg 73%
    15:00 +2°C° 0.3 mm 9 mps 657 mmHg 71%
    16:00 +2°C° 0.2 mm 9 mps 657 mmHg 76%
    17:00 +1°C° 0.2 mm 8 mps 658 mmHg 80%
    18:00 0°C° 0.2 mm 8 mps 658 mmHg 85%
    19:00 0°C° 0.1 mm 8 mps 659 mmHg 86%
    20:00 0°C° 0.1 mm 8 mps 659 mmHg 88%
    21:00 0°C° 0.1 mm 8 mps 659 mmHg 89%
    22:00 0°C° 0.2 mm 9 mps 659 mmHg 88%
    23:00 0°C° 0.2 mm 10 mps 659 mmHg 86%

    Day after tomorrow, 23 January, Monday

    Time Temperature Precipitation Wind Pressure Humidity
    00:00 -1°C° 0.2 mm 11 mps 659 mmHg 84%
    01:00 -1°C° 0.2 mm 11 mps 659 mmHg 84%
    02:00 -2°C° 0.2 mm 11 mps 659 mmHg 84%
    03:00 -2°C° 0.2 mm 11 mps 659 mmHg 84%
    04:00 -2°C° 0.1 mm 11 mps 659 mmHg 85%
    05:00 -2°C° 0.1 mm 11 mps 659 mmHg 85%
    06:00 -2°C° 0.1 mm 10 mps 659 mmHg 85%
    07:00 -2°C° 0 mm 11 mps 660 mmHg 83%
    08:00 -2°C° 0 mm 11 mps 660 mmHg 82%
    09:00 -1°C° 0 mm 11 mps 661 mmHg 80%
    10:00 -1°C° 0 mm 11 mps 661 mmHg 76%
    11:00 +1°C° 0 mm 11 mps 661 mmHg 73%
    12:00 +2°C° 0 mm 11 mps 661 mmHg 69%
    13:00 +2°C° 0 mm 11 mps 661 mmHg 67%
    14:00 +2°C° 0 mm 10 mps 661 mmHg 65%
    15:00 +2°C° 0 mm 10 mps 661 mmHg 64%
    16:00 +1°C° 0 mm 10 mps 661 mmHg 69%
    17:00 +1°C° 0 mm 9 mps 661 mmHg 74%
    18:00 0°C° 0 mm 9 mps 661 mmHg 78%
    19:00 -1°C° 0 mm 8 mps 662 mmHg 81%
    20:00 -1°C° 0 mm 8 mps 662 mmHg 83%
    21:00 -2°C° 0 mm 8 mps 662 mmHg 85%
    22:00 -2°C° 0 mm 8 mps 662 mmHg 86%
    23:00 -2°C° 0 mm 8 mps 662 mmHg 86%

    24 January, Tuesday

    Time Temperature Precipitation Wind Pressure Humidity
    00:00 -4°C° 0 mm 8 mps 662 mmHg 87%
    01:00 -4°C° 0 mm 8 mps 662 mmHg 88%
    02:00 -4°C° 0 mm 8 mps 661 mmHg 89%
    03:00 -4°C° 0 mm 8 mps 661 mmHg 90%
    04:00 -4°C° 0 mm 8 mps 661 mmHg 90%
    05:00 -4°C° 0 mm 8 mps 661 mmHg 90%
    06:00 -4°C° 0 mm 8 mps 662 mmHg 89%
    07:00 -3°C° 0.2 mm 9 mps 662 mmHg 87%
    08:00 -1°C° 0.2 mm 9 mps 663 mmHg 85%
    09:00 -2°C° 0.2 mm 10 mps 663 mmHg 83%
    10:00 0°C° 0 mm 9 mps 663 mmHg 80%
    11:00 +1°C° 0 mm 9 mps 663 mmHg 77%
    12:00 +2°C° 0 mm 8 mps 663 mmHg 74%
    13:00 +2°C° 0.1 mm 9 mps 663 mmHg 74%
    14:00 +2°C° 0.1 mm 9 mps 663 mmHg 73%
    15:00 +2°C° 0.1 mm 9 mps 663 mmHg 73%
    16:00 +1°C° 0.1 mm 8 mps 663 mmHg 76%
    17:00 +2°C° 0.1 mm 7 mps 664 mmHg 80%
    18:00 0°C° 0.1 mm 7 mps 664 mmHg 84%
    19:00 0°C° 0 mm 7 mps 665 mmHg 86%
    20:00 -1°C° 0 mm 7 mps 665 mmHg 87%
    21:00 -1°C° 0 mm 6 mps 665 mmHg 89%
    22:00 -1°C° 0 mm 7 mps 665 mmHg 89%
    23:00 -1°C° 0 mm 7 mps 665 mmHg 89%

    25 January, Wednesday

    Time Temperature Precipitation Wind Pressure Humidity
    00:00 -1°C° 0 mm 8 mps 665 mmHg 89%
    01:00 -1°C° 0 mm 8 mps 665 mmHg 88%
    02:00 -1°C° 0 mm 7 mps 665 mmHg 88%
    03:00 -1°C° 0 mm 7 mps 665 mmHg 87%
    04:00 -2°C° 0 mm 7 mps 666 mmHg 88%
    05:00 -2°C° 0 mm 6 mps 666 mmHg 89%
    06:00 -2°C° 0 mm 6 mps 666 mmHg 90%
    07:00 -1°C° 0 mm 6 mps 666 mmHg 88%
    08:00 -1°C° 0 mm 6 mps 667 mmHg 85%
    09:00 +1°C° 0 mm 6 mps 667 mmHg 83%
    10:00 +2°C° 0 mm 6 mps 667 mmHg 77%
    11:00 +3°C° 0 mm 6 mps 667 mmHg 72%
    12:00 +4°C° 0 mm 6 mps 667 mmHg 66%
    13:00 +4°C° 0 mm 6 mps 667 mmHg 64%
    14:00 +5°C° 0 mm 6 mps 667 mmHg 62%
    15:00 +6°C° 0 mm 5 mps 667 mmHg 60%
    16:00 +5°C° 0 mm 4 mps 667 mmHg 64%
    17:00 +4°C° 0 mm 4 mps 667 mmHg 69%
    18:00 +3°C° 0 mm 3 mps 667 mmHg 74%
    19:00 +3°C° 0 mm 2 mps 667 mmHg 77%
    20:00 +3°C° 0 mm 2 mps 667 mmHg 80%
    21:00 +3°C° 0 mm 1 mps 667 mmHg 83%
    22:00 +3°C° 0 mm 1 mps 667 mmHg 85%
    23:00 +2°C° 0 mm 1 mps 667 mmHg 86%

    26 January, Thursday

    Time Temperature Precipitation Wind Pressure Humidity
    00:00 +2°C° 0 mm 1 mps 667 mmHg 87%
    01:00 +2°C° 0 mm 1 mps 667 mmHg 87%
    02:00 +2°C° 0 mm 1 mps 667 mmHg 87%
    03:00 +2°C° 0 mm 1 mps 667 mmHg 87%
    04:00 +1°C° 0 mm 1 mps 667 mmHg 86%
    05:00 +1°C° 0 mm 1 mps 667 mmHg 86%
    06:00 +1°C° 0 mm 1 mps 667 mmHg 86%
    07:00 +3°C° 0 mm 1 mps 667 mmHg 79%
    08:00 +4°C° 0 mm 1 mps 668 mmHg 72%
    09:00 +5°C° 0 mm 2 mps 669 mmHg 66%
    10:00 +6°C° 0 mm 2 mps 668 mmHg 59%
    11:00 +7°C° 0 mm 3 mps 668 mmHg 52%
    12:00 +7°C° 0 mm 4 mps 668 mmHg 45%
    13:00 +7°C° 0 mm 4 mps 668 mmHg 43%
    14:00 +8°C° 0 mm 4 mps 668 mmHg 41%
    15:00 +8°C° 0 mm 4 mps 668 mmHg 39%
    16:00 +6°C° 0 mm 4 mps 667 mmHg 43%
    17:00 +5°C° 0 mm 3 mps 667 mmHg 47%
    18:00 +4°C° 0 mm 3 mps 667 mmHg 51%
    19:00 +3°C° 0 mm 3 mps 667 mmHg 52%
    20:00 +3°C° 0 mm 3 mps 668 mmHg 53%
    21:00 +2°C° 0 mm 3 mps 668 mmHg 54%
    22:00 +2°C° 0 mm 3 mps 668 mmHg 55%
    23:00 +3°C° 0 mm 2 mps 668 mmHg 55%
    Show more